DW7574 Weather Reports


time (UTC)temp
C
wind
direction
speed
KPH
gust
KPH
rain 1hr
cm
rain 24hr
cm
rain mn
cm
humidity
%
barometer
mb
20260503050031 -17 0.0 0.0 0.00 0.00 0.00 1018.7
20260503044535 -17 0.0 0.0 0.00 0.00 0.00 1018.6
20260503043024 -17 0.0 0.0 0.00 0.00 0.00 1018.5
20260503041518 -17 0.0 0.0 0.00 0.00 0.00 1018.3
20260503040022 -17 0.0 0.0 0.00 0.00 0.00 1018.3
20260503034509 6 205 0.0 0.0 0.00 0.00 0.00 51 1018.2
20260503033004 6 205 0.0 0.0 0.00 0.00 0.00 57 1018.1
20260503031601 6 205 0.0 0.0 0.00 0.00 0.00 59 1018.1
20260503030058 6 205 0.0 0.0 0.00 0.00 0.00 62 1018.1
20260503024551 7 205 0.0 0.0 0.00 0.00 0.00 63 1017.9
20260503023048 7 205 0.0 0.0 0.00 0.00 0.00 63 1017.8
20260503021543 7 205 0.0 0.0 0.00 0.00 0.00 63 1017.7
20260503020038 8 205 0.0 0.0 0.00 0.00 0.00 61 1017.5
20260503014533 8 205 0.0 0.0 0.00 0.00 0.00 61 1017.2
20260503013041 9 205 0.0 0.0 0.00 0.00 0.00 60 1017.1
20260503011532 9 205 0.0 0.0 0.00 0.00 0.00 60 1016.9
20260503010020 10 205 0.0 0.0 0.00 0.00 0.00 56 1016.7
20260503004516 10 205 0.0 0.0 0.00 0.00 0.00 55 1016.5
20260503003012 10 205 0.0 0.0 0.00 0.00 0.00 56 1016.3
20260503001512 10 204 0.0 0.0 0.00 0.00 0.00 55 1016.2
20260503000003 11 203 0.0 0.0 0.00 0.00 0.00 55 1016.0
20260502234602 11 203 0.0 0.0 0.00 0.00 0.00 55 1015.9
20260502233054 11 210 0.0 0.0 0.00 0.00 0.00 55 1015.7
20260502231550 12 239 0.0 0.0 0.00 0.00 0.00 54 1015.5
20260502230046 12 239 0.0 0.0 0.00 0.00 0.00 50 1015.5
20260502224542 12 239 0.0 1.6 0.00 0.00 0.00 50 1015.4
20260502223037 12 238 3.2 24.1 0.00 0.00 0.00 48 1015.4
20260502221532 12 330 0.0 0.0 0.00 0.00 0.00 52 1015.4
20260502220028 12 330 0.0 0.0 0.00 0.00 0.00 55 1015.3
20260502214534 12 330 0.0 6.4 0.00 0.00 0.00 50 1015.2
20260502213021 13 332 0.0 9.7 0.00 0.00 0.00 49 1015.2
20260502211524 13 339 0.0 11.3 0.00 0.00 0.00 49 1015.1
20260502210017 13 259 1.6 14.5 0.00 0.00 0.00 48 1015.1
20260502204506 12 351 0.0 0.0 0.00 0.00 0.00 53 1015.3
20260502203001 12 355 0.0 6.4 0.00 0.00 0.00 49 1015.3
20260502201611 12 355 0.0 12.9 0.00 0.00 0.00 47 1015.4
20260502200053 13 355 0.0 9.7 0.00 0.00 0.00 47 1015.4
20260502194552 13 29 0.0 11.3 0.00 0.00 0.00 48 1015.4
20260502193049 12 296 0.0 0.0 0.00 0.00 0.00 53 1015.8
20260502191540 13 296 0.0 11.3 0.00 0.00 0.00 48 1015.9
20260502190036 13 17 0.0 0.0 0.00 0.00 0.00 51 1016.0
20260502184534 12 346 0.0 3.2 0.00 0.00 0.00 51 1016.2
20260502183027 12 346 0.0 6.4 0.00 0.00 0.00 51 1016.2
20260502181521 12 355 0.0 8.0 0.00 0.00 0.00 51 1016.2
20260502163101 12 285 1.6 12.9 0.00 0.00 0.00 49 1016.7
20260502161552 12 90 0.0 17.7 0.00 0.00 0.00 48 1016.7
20260502151529 13 332 0.0 3.2 0.00 0.00 0.00 55 1017.1
20260502123043 3 321 0.0 0.0 0.00 0.00 0.00 100 1017.2
20260502121536 3 321 0.0 0.0 0.00 0.00 0.00 100 1017.0
20260502114537 -17 0.0 0.0 0.00 0.00 0.00 1017.1
20260502113028 -17 0.0 0.0 0.00 0.00 0.00 1017.0
20260502111518 -17 0.0 0.0 0.00 0.00 0.00 1016.7
20260502110018 -17 0.0 0.0 0.00 0.00 0.00 1016.6
20260502104510 -17 0.0 0.0 0.00 0.00 0.00 1016.5
20260502103006 -17 0.0 0.0 0.00 0.00 0.00 1016.4
20260502101501 -17 0.0 0.0 0.00 0.00 0.00 1017.0
20260502100110 -17 0.0 0.0 0.00 0.00 0.00 1016.9
20260502071508 -17 0.0 0.0 0.00 0.00 0.00 1016.5
20260502070005 -17 0.0 0.0 0.00 0.00 0.00 1016.5
20260502064622 -17 0.0 0.0 0.00 0.00 0.00 1016.5
20260502063123 -17 0.0 0.0 0.00 0.00 0.00 1016.6
20260502061552 -17 0.0 0.0 0.00 0.00 0.00 1017.0
20260502060049 -17 0.0 0.0 0.00 0.00 0.00 1017.1
20260502054543 -17 0.0 0.0 0.00 0.00 0.00 1017.0
20260502053041 -17 0.0 0.0 0.00 0.00 0.00 1017.2
20260502051536 -17 0.0 0.0 0.00 0.00 0.00 1017.1